CZ-6A DEB, 60894

Orbit data source: Space-Track

CZ-6A DEB, 60894 is space debris in LEO originally from a launch on Tue, 06 Aug 2024 UTC launched from the Taiyaun Space Center, China (TSC). Debris objects in space refer to the collection of defunct objects orbiting the Earth. Examples of debris include non-operational satellites, rocket bodies, and fragments generated from explosions, collisions, or faulty payload assembly.

Loading next visibility...
Identifier
60894, 2024-140KZ
Orbit
LEO
Country
Flag of CNCN / PRC
Related business
Manufacturer
SAST
Mission
Spacecraft
Bus & Motor
Unknown
Mass
Unknown
Launch date (UTC)
2024-08-06 (1 year ago)
Launch vehicle
Unknown
Launch site
Taiyaun Space Center, China (TSC)
Object type
Payload
Rocket body
Debris
Shape & HBR
Unknown shape, 0.1 m
Radar Cross Section
Small (<0.1 m²)

Expand to show TLE details & history
Last TLE update: 2 days ago

TLE from 2 days ago
0 CZ-6A DEB
1 60894U 24140KZ  25312.45634608  .00001067  00000-0  53962-3 0  9999
2 60894  89.0532 303.1063 0074320 212.6409 147.0174 14.14069712 63112
Epoch: 2025-11-08T10:57Z
TLE epoch observation values (Epoch: 2025-11-08T10:57:08.301Z)
Latitude
-0°
Longitude
90.93602°
Altitude
893.684 km
Speed
7.382 km/s
True Right ascension
20h 12m 25s
True Declination
0° 00' 00"
Sunlit
Object was in daylight at epoch
Visualization orbit readout
Latitude
Unknown
Longitude
Unknown
Altitude
Unknown
Speed
Unknown
Apparent Right ascension
Unknown
Apparent Declination
Unknown
Sunlit
N/A
Visualization observer readout
Local Sidereal Time
19:39:35
Azimuth
Unknown
Elevation
Unknown
Doppler factor
Unknown
Orbital elements
Apogee altitude
896.101 km
Perigee altitude
788.774 km
Semi-major axis
7,220.575 km
Eccentricity
0.00743
Inclination
89.0532°
RAAN
303.1063°
Arg. of periapsis
212.6409°
True anomaly
147.47743°
Mean anomaly
147.0174°
Eccentric anomaly
147.24777°
Mean motion
3.53741 °/min
Orbital period
101.77 mins
BSTAR
0.00053962
Loading maneuver chart data...
Computing Atmospheric mass density...

Documentation

Showing up to 5 results
|